FW7665 Weather Reports


Display with metric or nautical units.
time (UTC)temp
F
wind
direction
speed
MPH
gust
MPH
rain 1hr
in
rain 24hr
in
rain mn
in
humidity
%
barometer
mb
20260904154513 66 79 2.0 6.0 0.00 0.00 0.00 39 1022.4
20260904153612 63 101 3.0 7.0 0.00 0.00 0.00 45 1022.4
20260904152721 59 74 2.0 5.0 0.00 0.00 0.00 52 1022.4
20260904151812 55 53 1.0 4.0 0.00 0.00 0.00 59 1022.4
20260904150934 53 41 1.0 5.0 0.00 0.00 0.00 70 1022.4
20260904150012 51 145 2.0 6.0 0.00 0.00 0.00 70 1022.4
20260904145411 49 224 1.0 3.0 0.00 0.00 0.00 74 1022.4
20260904144511 48 0 0.0 0.0 0.00 0.00 0.00 76 1022.4
20260904143611 47 0 0.0 0.0 0.00 0.00 0.00 77 1022.4
20260904142731 46 0 0.0 0.0 0.00 0.00 0.00 78 1022.4
20260904141811 46 225 0.0 2.0 0.00 0.00 0.00 78 1022.4
20260904140910 45 232 1.0 2.0 0.00 0.00 0.00 78 1022.4
20260904140033 44 0 0.0 0.0 0.00 0.00 0.00 78 1022.4
20260904135411 44 0 0.0 0.0 0.00 0.00 0.00 77 1022.4
20260904134517 44 0 0.0 0.0 0.00 0.00 0.00 77 1022.4
20260904133611 44 0 0.0 0.0 0.00 0.00 0.00 76 1022.4
20260904132710 44 0 0.0 0.0 0.00 0.00 0.00 75 1022.4
20260904131811 44 0 0.0 0.0 0.00 0.00 0.00 76 1022.4
20260904130910 44 0 0.0 0.0 0.00 0.00 0.00 76 1022.4
20260904130018 43 0 0.0 0.0 0.00 0.00 0.00 75 1022.4
20260904125411 43 0 0.0 0.0 0.00 0.00 0.00 74 1022.4
20260904124510 43 0 0.0 0.0 0.00 0.00 0.00 74 1022.4
20260904123611 44 0 0.0 0.0 0.00 0.00 0.00 74 1022.4
20260904122710 44 0 0.0 0.0 0.00 0.00 0.00 73 1022.4
20260904121811 44 0 0.0 0.0 0.00 0.00 0.00 73 1022.4
20260904120910 44 0 0.0 0.0 0.00 0.00 0.00 73 1022.4
20260904120021 44 0 0.0 0.0 0.00 0.00 0.00 74 1022.4
20260904115411 44 0 0.0 0.0 0.00 0.00 0.00 74 1022.4
20260904114510 44 233 0.0 1.0 0.00 0.00 0.00 74 1022.4
20260904113611 43 233 0.0 2.0 0.00 0.00 0.00 73 1022.4
20260904112710 43 0 0.0 0.0 0.00 0.00 0.00 73 1022.4
20260904111811 43 0 0.0 0.0 0.00 0.00 0.00 74 1022.4
20260904110910 44 0 0.0 0.0 0.00 0.00 0.00 72 1022.4
20260904110011 44 0 0.0 0.0 0.00 0.00 0.00 72 1022.4
20260904105432 44 0 0.0 0.0 0.00 0.00 0.00 71 1022.4
20260904104530 44 0 0.0 0.0 0.00 0.00 0.00 70 1022.4
20260904103632 45 0 0.0 0.0 0.00 0.00 0.00 71 1022.4
20260904102710 45 0 0.0 0.0 0.00 0.00 0.00 72 1022.4
20260904101831 45 0 0.0 0.0 0.00 0.00 0.00 69 1022.4
20260904100909 45 0 0.0 0.0 0.00 0.00 0.00 73 1022.4
20260904095411 45 0 0.0 0.0 0.00 0.00 0.00 72 1022.3
20260904094510 45 0 0.0 0.0 0.00 0.00 0.00 72 1022.3
20260904093611 45 0 0.0 0.0 0.00 0.00 0.00 74 1022.3
20260904092730 46 233 0.0 1.0 0.00 0.00 0.00 75 1022.3
20260904091811 46 233 0.0 1.0 0.00 0.00 0.00 73 1022.3
20260904090927 46 0 0.0 0.0 0.00 0.00 0.00 72 1022.3
20260904090013 46 0 0.0 0.0 0.00 0.00 0.00 72 1022.3
20260904085410 46 0 0.0 0.0 0.00 0.00 0.00 72 1022.3
20260904084530 46 0 0.0 0.0 0.00 0.00 0.00 74 1022.3
20260904083610 46 0 0.0 0.0 0.00 0.00 0.00 71 1022.3
20260904082709 47 0 0.0 0.0 0.00 0.00 0.00 71 1022.3
20260904081810 47 233 0.0 3.0 0.00 0.00 0.00 71 1022.3
20260904080909 47 0 0.0 0.0 0.00 0.00 0.00 73 1022.3
20260904080011 47 0 0.0 0.0 0.00 0.00 0.00 72 1022.6
20260904075431 47 0 0.0 0.0 0.00 0.00 0.00 71 1022.6
20260904074509 47 0 0.0 0.0 0.00 0.00 0.00 70 1022.6
20260904073631 48 0 0.0 0.0 0.00 0.00 0.00 72 1022.6
20260904072709 48 0 0.0 0.0 0.00 0.00 0.00 74 1022.6
20260904071810 48 0 0.0 0.0 0.00 0.00 0.00 73 1022.6
20260904070909 48 0 0.0 0.0 0.00 0.00 0.00 72 1022.6
20260904070019 48 0 0.0 0.0 0.00 0.00 0.00 70 1022.6
20260904065410 48 0 0.0 0.0 0.00 0.00 0.00 67 1022.6
20260904064509 49 0 0.0 0.0 0.00 0.00 0.00 68 1022.6
20260904063631 49 0 0.0 0.0 0.00 0.00 0.00 68 1022.6
20260904062709 49 0 0.0 0.0 0.00 0.00 0.00 70 1022.6
20260904061809 50 0 0.0 0.0 0.00 0.00 0.00 68 1022.6
20260904060932 50 0 0.0 0.0 0.00 0.00 0.00 66 1022.6
20260904060015 50 0 0.0 0.0 0.00 0.00 0.00 66 1022.3
20260904055431 50 0 0.0 0.0 0.00 0.00 0.00 67 1022.3
20260904054530 50 0 0.0 0.0 0.00 0.00 0.00 68 1022.3
20260904053610 51 0 0.0 0.0 0.00 0.00 0.00 66 1022.3
20260904052708 51 0 0.0 0.0 0.00 0.00 0.00 67 1022.3
20260904051809 51 0 0.0 0.0 0.00 0.00 0.00 66 1022.3
20260904050909 51 0 0.0 0.0 0.00 0.00 0.00 66 1022.3
20260904050010 52 0 0.0 0.0 0.00 0.00 0.00 65 1022.3
20260904045410 52 0 0.0 0.0 0.00 0.00 0.00 67 1022.3
20260904044508 52 0 0.0 0.0 0.00 0.00 0.00 62 1022.3
20260904043609 52 0 0.0 0.0 0.00 0.00 0.00 64 1022.3
20260904042729 53 0 0.0 0.0 0.00 0.00 0.00 62 1022.3
20260904041809 53 0 0.0 0.0 0.00 0.00 0.00 62 1022.3
20260904040908 54 0 0.0 0.0 0.00 0.00 0.00 61 1022.3
20260904040010 54 233 0.0 1.0 0.00 0.00 0.00 61 1022.3
20260904035409 54 233 0.0 1.0 0.00 0.00 0.00 56 1022.3
20260904034508 55 0 0.0 0.0 0.00 0.00 0.00 60 1022.3
20260904033609 55 0 0.0 0.0 0.00 0.00 0.00 59 1022.3
20260904032708 55 0 0.0 0.0 0.00 0.00 0.00 60 1022.3
20260904031809 56 0 0.0 0.0 0.00 0.00 0.00 61 1022.3
20260904030929 57 0 0.0 0.0 0.00 0.00 0.00 58 1022.3
20260904030009 57 0 0.0 0.0 0.00 0.00 0.00 56 1021.6
20260904025410 58 0 0.0 0.0 0.00 0.00 0.00 58 1021.6
20260904024508 58 0 0.0 0.0 0.00 0.00 0.00 54 1021.6
20260904023630 59 0 0.0 0.0 0.00 0.00 0.00 58 1021.6
20260904022708 59 0 0.0 0.0 0.00 0.00 0.00 58 1021.6
20260904021809 59 0 0.0 0.0 0.00 0.00 0.00 57 1021.6
20260904020929 60 0 0.0 0.0 0.00 0.00 0.00 56 1021.6
20260904020009 61 0 0.0 0.0 0.00 0.00 0.00 55 1021.1
20260904015411 61 0 0.0 0.0 0.00 0.00 0.00 56 1021.1
20260904014508 62 233 1.0 2.0 0.00 0.00 0.00 54 1021.1
20260904013630 63 233 1.0 3.0 0.00 0.00 0.00 49 1021.1
20260904012709 63 233 1.0 2.0 0.00 0.00 0.00 49 1021.1
20260904011829 64 0 0.0 0.0 0.00 0.00 0.00 50 1021.1
20260904010908 64 0 0.0 0.0 0.00 0.00 0.00 50 1021.1
20260904010009 65 0 0.0 0.0 0.00 0.00 0.00 46 1020.7
20260904005408 65 0 0.0 0.0 0.00 0.00 0.00 52 1020.7
20260904004508 66 0 0.0 0.0 0.00 0.00 0.00 49 1020.7
20260904003609 67 211 1.0 4.0 0.00 0.00 0.00 45 1020.7
20260904002707 68 195 0.0 4.0 0.00 0.00 0.00 38 1020.7
20260904001809 70 0 0.0 0.0 0.00 0.00 0.00 37 1020.7
20260904000908 71 330 2.0 4.0 0.00 0.00 0.00 33 1020.7
20260904000030 68 189 2.0 7.0 0.00 0.00 0.00 33 1020.7
20260903235408 67 234 1.0 3.0 0.00 0.00 0.00 37 1020.7
20260903234507 67 257 1.0 3.0 0.00 0.00 0.00 44 1020.7
20260903233609 68 284 0.0 3.0 0.00 0.00 0.00 37 1020.7
20260903232728 69 241 1.0 3.0 0.00 0.00 0.00 38 1020.7
20260903231808 72 171 2.0 5.0 0.00 0.00 0.00 29 1020.7
20260903230907 70 148 1.0 6.0 0.00 0.00 0.00 33 1020.7
20260903230029 70 58 1.0 3.0 0.00 0.00 0.00 32 1020.7
20260903225408 70 75 2.0 4.0 0.00 0.00 0.00 33 1020.7
20260903224507 72 105 2.0 7.0 0.00 0.00 0.00 34 1020.7
20260903223608 72 111 2.0 8.0 0.00 0.00 0.00 31 1020.7
20260903222707 73 128 1.0 6.0 0.00 0.00 0.00 31 1020.7
20260903221808 73 56 2.0 6.0 0.00 0.02 0.00 31 1020.7
20260903220907 73 94 3.0 11.0 0.00 0.02 0.00 29 1020.7
20260903220008 74 101 4.0 11.0 0.00 0.02 0.00 30 1020.4
20260903215429 74 103 4.0 11.0 0.00 0.02 0.00 30 1020.4
20260903214507 74 96 3.0 8.0 0.00 0.02 0.00 31 1020.4
20260903213608 75 109 3.0 7.0 0.00 0.02 0.00 30 1020.4
20260903212707 75 110 3.0 9.0 0.00 0.02 0.00 29 1020.4
20260903211808 75 115 4.0 10.0 0.00 0.02 0.00 30 1020.4
20260903210907 75 112 3.0 10.0 0.00 0.02 0.00 28 1020.4
20260903210008 76 121 3.0 9.0 0.00 0.02 0.00 26 1020.7
20260903205408 75 112 3.0 7.0 0.00 0.02 0.00 24 1020.7
20260903204506 76 108 3.0 8.0 0.00 0.02 0.00 23 1020.7
20260903203609 77 120 3.0 8.0 0.00 0.02 0.00 20 1020.7
20260903202707 78 93 3.0 8.0 0.00 0.02 0.00 24 1020.7
20260903201807 79 50 3.0 9.0 0.00 0.02 0.00 19 1020.7
20260903200907 79 41 3.0 9.0 0.00 0.02 0.00 17 1020.7
20260903200029 78 52 3.0 9.0 0.00 0.02 0.00 20 1022.2
20260903195407 78 334 2.0 6.0 0.00 0.02 0.00 22 1022.2
20260903194506 78 38 2.0 10.0 0.00 0.02 0.00 21 1022.2
20260903193608 78 309 3.0 9.0 0.00 0.02 0.00 23 1022.2
20260903192727 77 311 3.0 11.0 0.00 0.02 0.00 19 1022.2
20260903191809 79 103 4.0 15.0 0.00 0.02 0.00 18 1022.2
20260903190906 77 81 4.0 15.0 0.00 0.02 0.00 19 1022.2
20260903190017 78 53 3.0 10.0 0.00 0.02 0.00 19 1022.2
20260903185408 78 45 3.0 9.0 0.00 0.02 0.00 24 1022.2
20260903184506 78 87 3.0 10.0 0.00 0.02 0.00 21 1022.2
20260903183607 78 64 4.0 10.0 0.00 0.02 0.00 23 1022.2
20260903182706 77 81 3.0 9.0 0.00 0.02 0.00 22 1022.2
20260903181810 77 78 3.0 10.0 0.00 0.02 0.00 25 1022.2
20260903180928 76 44 2.0 6.0 0.00 0.02 0.00 26 1022.2
20260903180023 75 72 1.0 5.0 0.00 0.02 0.00 25 1022.7
20260903175407 75 91 1.0 4.0 0.00 0.02 0.00 30 1022.7
20260903174506 75 109 2.0 6.0 0.00 0.02 0.00 27 1022.7
20260903173607 74 34 3.0 10.0 0.00 0.02 0.00 25 1022.7
20260903172706 74 72 2.0 7.0 0.00 0.02 0.00 27 1022.7
20260903171807 74 98 3.0 9.0 0.00 0.02 0.00 30 1022.7
20260903170906 73 45 2.0 10.0 0.00 0.02 0.00 31 1022.7
20260903170007 72 98 2.0 7.0 0.00 0.02 0.00 32 1022.6
20260903165407 72 70 2.0 7.0 0.00 0.02 0.00 31 1022.6
20260903164506 71 38 2.0 10.0 0.00 0.02 0.00 33 1022.6
20260903163628 71 94 3.0 11.0 0.00 0.02 0.00 31 1022.6
20260903162706 69 86 3.0 7.0 0.00 0.02 0.00 34 1022.6
20260903161807 68 57 2.0 8.0 0.00 0.02 0.00 36 1022.6
20260903160907 66 59 3.0 7.0 0.00 0.02 0.00 39 1022.6
20260903160007 63 26 2.0 5.0 0.00 0.02 0.00 44 1023.3
20260903155407 62 44 2.0 6.0 0.00 0.02 0.00 45 1023.3